Time,TemperatureF,DewpointF,PressureIn,WindDirection,WindDirectionDegrees,WindSpeedMPH,WindSpeedGustMPH,Humidity,HourlyPrecipIn,Conditions,Clouds,dailyrainin,SoftwareType,DateUTC
2013-05-12 00:03:00,-999.0,-99.9,29.95,West,271,1.0,-999.0,95,-99.99,,,-99.99,,2013-05-12 04:03:00,
2013-05-12 00:12:00,57.0,56.0,29.95,West,271,1.0,-999.0,95,-99.99,,,-99.99,,2013-05-12 04:12:00,
2013-05-12 00:22:00,56.0,54.0,29.94,NE,37,2.0,-999.0,93,-99.99,,,-99.99,,2013-05-12 04:22:00,
2013-05-12 00:33:00,56.0,54.0,29.94,NE,37,2.0,-999.0,93,-99.99,,,-99.99,,2013-05-12 04:33:00,
2013-05-12 00:43:00,55.0,53.0,29.93,NE,53,3.0,-999.0,92,-99.99,,,-99.99,,2013-05-12 04:43:00,
2013-05-12 00:52:00,55.0,53.0,29.93,NE,53,3.0,-999.0,92,-99.99,,,-99.99,,2013-05-12 04:52:00,
2013-05-12 01:02:00,55.0,53.0,29.93,NE,53,3.0,-999.0,92,-99.99,,,-99.99,,2013-05-12 05:02:00,
2013-05-12 01:12:00,55.0,53.0,29.93,NE,53,3.0,-999.0,92,-99.99,,,-99.99,,2013-05-12 05:12:00,
2013-05-12 01:22:00,54.0,50.0,29.93,NW,324,4.0,-999.0,85,-99.99,,,-99.99,,2013-05-12 05:22:00,
2013-05-12 01:32:00,54.0,50.0,29.93,NW,324,4.0,-999.0,85,-99.99,,,-99.99,,2013-05-12 05:32:00,
2013-05-12 01:42:00,54.0,50.0,29.93,NW,324,4.0,-999.0,85,-99.99,,,-99.99,,2013-05-12 05:42:00,
2013-05-12 01:52:00,53.0,49.0,29.94,NNE,25,2.0,-999.0,87,-99.99,,,-99.99,,2013-05-12 05:52:00,
2013-05-12 02:01:00,53.0,49.0,29.94,NNE,25,2.0,-999.0,87,-99.99,,,-99.99,,2013-05-12 06:01:00,
2013-05-12 02:11:00,53.0,49.0,29.94,NNE,25,2.0,-999.0,87,-99.99,,,-99.99,,2013-05-12 06:11:00,
2013-05-12 02:21:00,52.0,49.0,29.93,SE,135,2.0,-999.0,91,-99.99,,,-99.99,,2013-05-12 06:21:00,
2013-05-12 02:32:00,52.0,49.0,29.93,SE,135,2.0,-999.0,91,-99.99,,,-99.99,,2013-05-12 06:32:00,
2013-05-12 02:42:00,50.0,46.0,29.92,ENE,63,2.0,-999.0,87,-99.99,,,-99.99,,2013-05-12 06:42:00,
2013-05-12 02:52:00,50.0,46.0,29.92,ENE,63,2.0,-999.0,87,-99.99,,,-99.99,,2013-05-12 06:52:00,
2013-05-12 03:01:00,50.0,46.0,29.92,ENE,63,2.0,-999.0,87,-99.99,,,-99.99,,2013-05-12 07:01:00,
2013-05-12 03:11:00,50.0,46.0,29.92,ENE,63,2.0,-999.0,87,-99.99,,,-99.99,,2013-05-12 07:11:00,
2013-05-12 03:22:00,50.0,46.0,29.91,SSE,149,1.0,-999.0,85,-99.99,,,-99.99,,2013-05-12 07:22:00,
2013-05-12 03:32:00,50.0,46.0,29.91,SSE,149,1.0,-999.0,85,-99.99,,,-99.99,,2013-05-12 07:32:00,
2013-05-12 03:42:00,50.0,46.0,29.91,SSE,149,1.0,-999.0,85,-99.99,,,-99.99,,2013-05-12 07:42:00,
2013-05-12 03:52:00,49.0,45.0,29.91,SE,128,2.0,-999.0,85,-99.99,,,-99.99,,2013-05-12 07:52:00,
2013-05-12 04:02:00,49.0,45.0,29.91,SE,128,2.0,-999.0,85,-99.99,,,-99.99,,2013-05-12 08:02:00,
2013-05-12 04:11:00,49.0,45.0,29.91,SE,128,2.0,-999.0,85,-99.99,,,-99.99,,2013-05-12 08:11:00,
2013-05-12 04:21:00,50.0,45.0,29.91,ESE,108,3.0,-999.0,83,-99.99,,,-99.99,,2013-05-12 08:21:00,
2013-05-12 04:32:00,50.0,45.0,29.91,ESE,108,3.0,-999.0,83,-99.99,,,-99.99,,2013-05-12 08:32:00,
2013-05-12 04:42:00,50.0,45.0,29.91,ESE,108,3.0,-999.0,83,-99.99,,,-99.99,,2013-05-12 08:42:00,
2013-05-12 04:53:00,50.0,45.0,29.92,East,85,3.0,-999.0,83,-99.99,,,-99.99,,2013-05-12 08:53:00,
2013-05-12 05:01:00,50.0,45.0,29.92,East,85,3.0,-999.0,83,-99.99,,,-99.99,,2013-05-12 09:01:00,
2013-05-12 05:11:00,50.0,45.0,29.92,East,85,3.0,-999.0,83,-99.99,,,-99.99,,2013-05-12 09:11:00,
2013-05-12 05:21:00,49.0,44.0,29.92,WNW,285,4.0,-999.0,84,-99.99,,,-99.99,,2013-05-12 09:21:00,
2013-05-12 05:33:00,49.0,44.0,29.92,WNW,285,4.0,-999.0,84,-99.99,,,-99.99,,2013-05-12 09:33:00,
2013-05-12 05:43:00,49.0,44.0,29.92,WNW,285,4.0,-999.0,84,-99.99,,,-99.99,,2013-05-12 09:43:00,
2013-05-12 05:53:00,49.0,45.0,29.93,ESE,111,2.0,-999.0,85,-99.99,,,-99.99,,2013-05-12 09:53:00,
2013-05-12 06:03:00,49.0,45.0,29.93,ESE,111,2.0,-999.0,85,-99.99,,,-99.99,,2013-05-12 10:03:00,
2013-05-12 06:12:00,49.0,45.0,29.93,ESE,111,2.0,-999.0,85,-99.99,,,-99.99,,2013-05-12 10:12:00,
2013-05-12 06:23:00,49.0,46.0,29.94,SE,139,1.0,-999.0,88,-99.99,,,-99.99,,2013-05-12 10:23:00,
2013-05-12 06:33:00,49.0,46.0,29.94,SE,139,1.0,-999.0,88,-99.99,,,-99.99,,2013-05-12 10:33:00,
2013-05-12 06:42:00,49.0,46.0,29.94,SE,139,1.0,-999.0,88,-99.99,,,-99.99,,2013-05-12 10:42:00,
2013-05-12 06:52:00,48.0,45.0,29.95,SE,139,1.0,-999.0,90,-99.99,,,-99.99,,2013-05-12 10:52:00,
2013-05-12 07:02:00,48.0,45.0,29.95,SE,139,1.0,-999.0,90,-99.99,,,-99.99,,2013-05-12 11:02:00,
2013-05-12 07:12:00,48.0,45.0,29.95,SE,139,1.0,-999.0,90,-99.99,,,-99.99,,2013-05-12 11:12:00,
2013-05-12 07:22:00,48.0,46.0,29.96,WNW,293,2.0,-999.0,92,-99.99,,,-99.99,,2013-05-12 11:22:00,
2013-05-12 07:32:00,48.0,46.0,29.96,WNW,293,2.0,-999.0,92,-99.99,,,-99.99,,2013-05-12 11:32:00,
2013-05-12 07:42:00,48.0,46.0,29.99,SSE,149,2.0,-999.0,93,-99.99,,,-99.99,,2013-05-12 11:42:00,
2013-05-12 07:52:00,48.0,46.0,29.99,SSE,149,2.0,-999.0,93,-99.99,,,-99.99,,2013-05-12 11:52:00,
2013-05-12 08:02:00,48.0,46.0,29.99,SSE,149,2.0,-999.0,93,-99.99,,,-99.99,,2013-05-12 12:02:00,
2013-05-12 08:11:00,49.0,47.0,29.99,East,86,1.0,-999.0,92,-99.99,,,-99.99,,2013-05-12 12:11:00,
2013-05-12 08:22:00,49.0,47.0,29.99,East,86,1.0,-999.0,92,-99.99,,,-99.99,,2013-05-12 12:22:00,
2013-05-12 08:32:00,49.0,47.0,29.99,East,86,1.0,-999.0,92,-99.99,,,-99.99,,2013-05-12 12:32:00,
2013-05-12 08:42:00,49.0,47.0,29.99,East,86,1.0,-999.0,92,-99.99,,,-99.99,,2013-05-12 12:42:00,
2013-05-12 08:52:00,49.0,47.0,30.01,NNE,32,1.0,-999.0,92,-99.99,,,-99.99,,2013-05-12 12:52:00,
2013-05-12 09:02:00,49.0,47.0,30.01,NNE,32,1.0,-999.0,92,-99.99,,,-99.99,,2013-05-12 13:02:00,
2013-05-12 09:11:00,49.0,47.0,30.01,NNE,32,1.0,-999.0,92,-99.99,,,-99.99,,2013-05-12 13:11:00,
2013-05-12 09:21:00,49.0,46.0,30.01,SE,144,2.0,-999.0,91,-99.99,,,-99.99,,2013-05-12 13:21:00,
2013-05-12 09:32:00,49.0,46.0,30.01,SE,144,2.0,-999.0,91,-99.99,,,-99.99,,2013-05-12 13:32:00,
2013-05-12 09:42:00,49.0,46.0,30.01,SE,144,2.0,-999.0,91,-99.99,,,-99.99,,2013-05-12 13:42:00,
2013-05-12 09:52:00,50.0,46.0,30.02,West,266,1.0,-999.0,85,-99.99,,,-99.99,,2013-05-12 13:52:00,
2013-05-12 10:01:00,50.0,46.0,30.02,West,266,1.0,-999.0,85,-99.99,,,-99.99,,2013-05-12 14:01:00,
2013-05-12 10:11:00,50.0,46.0,30.02,West,266,1.0,-999.0,85,-99.99,,,-99.99,,2013-05-12 14:11:00,
2013-05-12 10:21:00,51.0,43.0,30.02,East,91,2.0,-999.0,75,-99.99,,,-99.99,,2013-05-12 14:21:00,
2013-05-12 10:32:00,51.0,43.0,30.02,East,91,2.0,-999.0,75,-99.99,,,-99.99,,2013-05-12 14:32:00,
2013-05-12 10:42:00,53.0,45.0,30.04,WNW,296,3.0,-999.0,73,-99.99,,,-99.99,,2013-05-12 14:42:00,
2013-05-12 10:52:00,53.0,45.0,30.04,WNW,296,3.0,-999.0,73,-99.99,,,-99.99,,2013-05-12 14:52:00,
2013-05-12 11:01:00,53.0,45.0,30.04,WNW,296,3.0,-999.0,73,-99.99,,,-99.99,,2013-05-12 15:01:00,
2013-05-12 11:11:00,53.0,45.0,30.04,WNW,296,3.0,-999.0,73,-99.99,,,-99.99,,2013-05-12 15:11:00,
2013-05-12 11:21:00,53.0,43.0,30.05,West,276,5.0,-999.0,69,-99.99,,,-99.99,,2013-05-12 15:21:00,
2013-05-12 11:34:00,53.0,43.0,30.05,West,276,5.0,-999.0,69,-99.99,,,-99.99,,2013-05-12 15:34:00,
2013-05-12 11:42:00,53.0,43.0,30.05,West,276,5.0,-999.0,69,-99.99,,,-99.99,,2013-05-12 15:42:00,
2013-05-12 11:53:00,54.0,42.0,30.05,NNW,329,4.0,-999.0,63,-99.99,,,-99.99,,2013-05-12 15:53:00,
2013-05-12 12:02:00,54.0,42.0,30.05,NNW,329,4.0,-999.0,63,-99.99,,,-99.99,,2013-05-12 16:02:00,
2013-05-12 12:13:00,54.0,42.0,30.05,NNW,329,4.0,-999.0,63,-99.99,,,-99.99,,2013-05-12 16:13:00,
2013-05-12 12:23:00,55.0,42.0,30.06,WNW,285,5.0,-999.0,62,-99.99,,,-99.99,,2013-05-12 16:23:00,
2013-05-12 12:33:00,55.0,42.0,30.06,WNW,285,5.0,-999.0,62,-99.99,,,-99.99,,2013-05-12 16:33:00,
2013-05-12 12:42:00,55.0,42.0,30.06,WNW,285,5.0,-999.0,62,-99.99,,,-99.99,,2013-05-12 16:42:00,
2013-05-12 12:53:00,56.0,42.0,30.06,West,281,3.0,-999.0,59,-99.99,,,-99.99,,2013-05-12 16:53:00,
2013-05-12 13:02:00,56.0,42.0,30.06,West,281,3.0,-999.0,59,-99.99,,,-99.99,,2013-05-12 17:02:00,
2013-05-12 13:12:00,57.0,41.0,30.06,WNW,292,4.0,-999.0,56,-99.99,,,-99.99,,2013-05-12 17:12:00,
2013-05-12 13:22:00,57.0,41.0,30.06,WNW,292,4.0,-999.0,56,-99.99,,,-99.99,,2013-05-12 17:22:00,
2013-05-12 13:32:00,57.0,41.0,30.06,WNW,292,4.0,-999.0,56,-99.99,,,-99.99,,2013-05-12 17:32:00,
2013-05-12 13:42:00,57.0,40.0,30.06,West,278,5.0,-999.0,52,-99.99,,,-99.99,,2013-05-12 17:42:00,
2013-05-12 13:53:00,57.0,40.0,30.06,West,278,5.0,-999.0,52,-99.99,,,-99.99,,2013-05-12 17:53:00,
2013-05-12 14:01:00,57.0,40.0,30.06,West,278,5.0,-999.0,52,-99.99,,,-99.99,,2013-05-12 18:01:00,
2013-05-12 14:12:00,57.0,40.0,30.06,West,278,5.0,-999.0,52,-99.99,,,-99.99,,2013-05-12 18:12:00,
2013-05-12 14:22:00,58.0,37.0,30.06,WNW,291,4.0,-999.0,46,-99.99,,,-99.99,,2013-05-12 18:22:00,
2013-05-12 14:32:00,58.0,37.0,30.06,WNW,291,4.0,-999.0,46,-99.99,,,-99.99,,2013-05-12 18:32:00,
2013-05-12 14:42:00,58.0,37.0,30.06,WNW,291,4.0,-999.0,46,-99.99,,,-99.99,,2013-05-12 18:42:00,
2013-05-12 14:52:00,59.0,38.0,30.05,NNE,21,3.0,-999.0,45,-99.99,,,-99.99,,2013-05-12 18:52:00,
2013-05-12 15:01:00,59.0,38.0,30.05,NNE,21,3.0,-999.0,45,-99.99,,,-99.99,,2013-05-12 19:01:00,
2013-05-12 15:11:00,59.0,38.0,30.05,NNE,21,3.0,-999.0,45,-99.99,,,-99.99,,2013-05-12 19:11:00,
2013-05-12 15:22:00,59.0,37.0,30.04,SW,234,4.0,-999.0,44,-99.99,,,-99.99,,2013-05-12 19:22:00,
2013-05-12 15:32:00,59.0,37.0,30.04,SW,234,4.0,-999.0,44,-99.99,,,-99.99,,2013-05-12 19:32:00,
2013-05-12 15:42:00,58.0,35.0,30.04,WNW,282,4.0,-999.0,42,-99.99,,,-99.99,,2013-05-12 19:42:00,
2013-05-12 15:52:00,58.0,35.0,30.04,WNW,282,4.0,-999.0,42,-99.99,,,-99.99,,2013-05-12 19:52:00,
2013-05-12 16:02:00,58.0,35.0,30.04,WNW,282,4.0,-999.0,42,-99.99,,,-99.99,,2013-05-12 20:02:00,
2013-05-12 16:11:00,59.0,37.0,30.03,NNW,327,4.0,-999.0,43,-99.99,,,-99.99,,2013-05-12 20:11:00,
2013-05-12 16:21:00,59.0,37.0,30.03,NNW,327,4.0,-999.0,43,-99.99,,,-99.99,,2013-05-12 20:21:00,
2013-05-12 16:32:00,59.0,37.0,30.03,NNW,327,4.0,-999.0,43,-99.99,,,-99.99,,2013-05-12 20:32:00,
2013-05-12 16:42:00,59.0,37.0,30.03,NNW,327,4.0,-999.0,43,-99.99,,,-99.99,,2013-05-12 20:42:00,
2013-05-12 16:52:00,60.0,36.0,30.03,NNE,28,3.0,-999.0,41,-99.99,,,-99.99,,2013-05-12 20:52:00,
2013-05-12 17:01:00,60.0,36.0,30.03,NNE,28,3.0,-999.0,41,-99.99,,,-99.99,,2013-05-12 21:01:00,
2013-05-12 17:11:00,58.0,34.0,30.04,West,281,4.0,-999.0,40,-99.99,,,-99.99,,2013-05-12 21:11:00,
2013-05-12 17:21:00,58.0,34.0,30.04,West,281,4.0,-999.0,40,-99.99,,,-99.99,,2013-05-12 21:21:00,
2013-05-12 17:33:00,58.0,34.0,30.04,West,281,4.0,-999.0,40,-99.99,,,-99.99,,2013-05-12 21:33:00,
2013-05-12 17:42:00,58.0,34.0,30.04,West,281,4.0,-999.0,40,-99.99,,,-99.99,,2013-05-12 21:42:00,
2013-05-12 17:53:00,58.0,33.0,30.05,WSW,252,3.0,-999.0,39,-99.99,,,-99.99,,2013-05-12 21:53:00,
2013-05-12 18:02:00,58.0,33.0,30.05,WSW,252,3.0,-999.0,39,-99.99,,,-99.99,,2013-05-12 22:02:00,
2013-05-12 18:12:00,57.0,32.0,30.06,SW,223,4.0,-999.0,38,-99.99,,,-99.99,,2013-05-12 22:12:00,
2013-05-12 18:23:00,57.0,32.0,30.06,SW,223,4.0,-999.0,38,-99.99,,,-99.99,,2013-05-12 22:23:00,
2013-05-12 18:33:00,57.0,32.0,30.06,SW,223,4.0,-999.0,38,-99.99,,,-99.99,,2013-05-12 22:33:00,
2013-05-12 18:42:00,57.0,32.0,30.06,SW,223,4.0,-999.0,38,-99.99,,,-99.99,,2013-05-12 22:42:00,
2013-05-12 18:52:00,56.0,31.0,30.06,North,359,3.0,-999.0,39,-99.99,,,-99.99,,2013-05-12 22:52:00,
2013-05-12 19:02:00,56.0,31.0,30.06,North,359,3.0,-999.0,39,-99.99,,,-99.99,,2013-05-12 23:02:00,
2013-05-12 19:12:00,55.0,30.0,30.07,WSW,257,3.0,-999.0,38,-99.99,,,-99.99,,2013-05-12 23:12:00,
2013-05-12 19:22:00,55.0,30.0,30.07,WSW,257,3.0,-999.0,38,-99.99,,,-99.99,,2013-05-12 23:22:00,
2013-05-12 19:32:00,55.0,30.0,30.07,WSW,257,3.0,-999.0,38,-99.99,,,-99.99,,2013-05-12 23:32:00,
2013-05-12 19:42:00,55.0,30.0,30.07,WSW,257,3.0,-999.0,38,-99.99,,,-99.99,,2013-05-12 23:42:00,
2013-05-12 19:52:00,54.0,32.0,30.08,NW,323,3.0,-999.0,43,-99.99,,,-99.99,,2013-05-12 23:52:00,
2013-05-12 20:01:00,54.0,32.0,30.08,NW,323,3.0,-999.0,43,-99.99,,,-99.99,,2013-05-13 00:01:00,
2013-05-12 20:11:00,54.0,32.0,30.08,NW,323,3.0,-999.0,43,-99.99,,,-99.99,,2013-05-13 00:11:00,
2013-05-12 20:21:00,53.0,32.0,30.09,WNW,293,2.0,-999.0,44,-99.99,,,-99.99,,2013-05-13 00:21:00,
2013-05-12 20:32:00,53.0,32.0,30.09,WNW,293,2.0,-999.0,44,-99.99,,,-99.99,,2013-05-13 00:32:00,
2013-05-12 20:42:00,52.0,32.0,30.08,North,359,1.0,-999.0,46,-99.99,,,-99.99,,2013-05-13 00:42:00,
2013-05-12 20:52:00,52.0,32.0,30.08,North,359,1.0,-999.0,46,-99.99,,,-99.99,,2013-05-13 00:52:00,
2013-05-12 21:01:00,52.0,32.0,30.08,North,359,1.0,-999.0,46,-99.99,,,-99.99,,2013-05-13 01:01:00,
2013-05-12 21:11:00,52.0,32.0,30.08,North,359,1.0,-999.0,46,-99.99,,,-99.99,,2013-05-13 01:11:00,
2013-05-12 21:22:00,52.0,32.0,30.08,North,359,1.0,-999.0,46,-99.99,,,-99.99,,2013-05-13 01:22:00,
2013-05-12 21:32:00,51.0,33.0,30.08,NNW,344,1.0,-999.0,50,-99.99,,,-99.99,,2013-05-13 01:32:00,
2013-05-12 21:42:00,51.0,33.0,30.08,NNW,344,1.0,-999.0,50,-99.99,,,-99.99,,2013-05-13 01:42:00,
2013-05-12 21:52:00,50.0,33.0,30.08,East,84,1.0,-999.0,52,-99.99,,,-99.99,,2013-05-13 01:52:00,
2013-05-12 22:02:00,50.0,33.0,30.08,East,84,1.0,-999.0,52,-99.99,,,-99.99,,2013-05-13 02:02:00,
2013-05-12 22:11:00,50.0,33.0,30.08,East,84,1.0,-999.0,52,-99.99,,,-99.99,,2013-05-13 02:11:00,
2013-05-12 22:21:00,49.0,32.0,30.09,ESE,120,1.0,-999.0,51,-99.99,,,-99.99,,2013-05-13 02:21:00,
2013-05-12 22:32:00,49.0,32.0,30.09,ESE,120,1.0,-999.0,51,-99.99,,,-99.99,,2013-05-13 02:32:00,
2013-05-12 22:42:00,49.0,32.0,30.09,ESE,120,1.0,-999.0,51,-99.99,,,-99.99,,2013-05-13 02:42:00,
2013-05-12 22:52:00,48.0,32.0,30.11,ESE,118,1.0,-999.0,54,-99.99,,,-99.99,,2013-05-13 02:52:00,
2013-05-12 23:02:00,48.0,32.0,30.11,ESE,118,1.0,-999.0,54,-99.99,,,-99.99,,2013-05-13 03:02:00,
2013-05-12 23:11:00,48.0,32.0,30.11,ESE,118,1.0,-999.0,54,-99.99,,,-99.99,,2013-05-13 03:11:00,
2013-05-12 23:21:00,48.0,32.0,30.11,ENE,58,2.0,-999.0,53,-99.99,,,-99.99,,2013-05-13 03:21:00,
2013-05-12 23:32:00,48.0,32.0,30.11,ENE,58,2.0,-999.0,53,-99.99,,,-99.99,,2013-05-13 03:32:00,
2013-05-12 23:42:00,48.0,32.0,30.11,ENE,58,2.0,-999.0,53,-99.99,,,-99.99,,2013-05-13 03:42:00,
2013-05-12 23:53:00,47.0,31.0,30.11,SSE,158,2.0,-999.0,54,-99.99,,,-99.99,,2013-05-13 03:53:00,